Tracking 18851 objects as of 25-Nov-2017
HD Live streaming from Space Station
objects crossing your sky now

FENGYUN 1C DEB

Track FENGYUN 1C DEB now!
10-day predictions


NORAD ID: 29927
Int'l Code: 1999-025HZ
Perigee: 774.9 km
Apogee: 823.3 km
Inclination: 99.1 °
Period: 100.7 minutes
Semi major axis: 7170 km
RCS: 0.028 m2 (small)
Launch date: May 10, 1999
Source: People's Republic of China (PRC)
Launch site: Taiyaun Space Center, China (TSC)

Note: This is SATELLITE DEBRIS
aabbcc
Your satellite tracking list
Your tracking list is empty




NASA's NSSDC Master Catalog

Two Line Element Set (TLE):
1 29927U 99025HZ  17328.96203167 +.00001080 +00000-0 +43546-3 0  9993
2 29927 099.1249 136.8309 0033748 204.2339 307.4647 14.29926976563711
Source of the keplerian elements: AFSPC